Volver al catálogo

LAGEOS 2

ActivoCienciaMEO
NORAD 22195·PAYLOAD·🇮🇹 Italy

Lanzado Oct 22, 1992 desde Cape Canaveral Space Force Station

Loading…

Próximos Pases (próximas 24 horas)

TLE

ActualizadoSource: CelesTrak SupGP

Época: Sep 14, 2026, 00:00 UTC

1 22195C 92070B   26257.00000000  .00000000  00000+0  00000+0 0  2574
2 22195  52.6439 210.5218 0138088 226.1857 218.8723  6.47293805    14

Sigue LAGEOS 2 en tiempo real con AllMySat

Download on the App Store